DECAYED

COSMOS 2251 DEB, 33930 (Decayed)

Orbit data source: Space-Track

COSMOS 2251 DEB, 33930 was space debris in LEO originally from a launch on Wed, 16 Jun 1993 UTC launched from the Plesetsk Missile And Space Complex (PKMTR). The debris from Iridium 33, an American commercial communications satellite, has been tracked extensively since its accidental collision with the defunct Russian satellite Cosmos 2251 in 2009. This event, occurring at high speed in low Earth orbit (LEO), generated thousands of pieces of space debris, significantly increasing the risk of further collisions. The Iridium 33 debris cloud has impacted space traffic management and orbital debris mitigation strategies, making it a subject of ongoing study in space situational awareness.

Not visible in the next 10 days
Identifier
33930, 1993-036EK
Orbit
Decayed
Country
Flag of CISCIS
Related business
Manufacturer
Unknown
Mission
Decayed spacecraft
Bus & Motor
Unknown
Mass
Unknown
Launch date (UTC)
1993-06-16 (32 years ago)
Launch vehicle
Unknown
Launch site
Plesetsk Missile And Space Complex (PKMTR)
Object type
Payload
Rocket body
Debris
Shape & HBR
Unknown shape, 0.1 m
Radar Cross Section
Small (<0.1 m²)

Expand to show TLE details & history
Last TLE update: 7 months ago

TLE from 7 months ago
0 COSMOS 2251 DEB
1 33930U 93036EK  25098.33213588  .08449449  18067+0  20208-1 0  9992
2 33930  73.9763 192.3262 0022800 316.6873  43.2574 16.02587727851695
Epoch: 2025-04-08T07:58Z
TLE epoch observation values (Epoch: 2025-04-08T07:58:16.540Z)
Latitude
0.00003°
Longitude
-124.07744°
Altitude
259.041 km
Speed
7.758 km/s
True Right ascension
12h 49m 18s
True Declination
0° 00' 00"
Sunlit
Object was in full shadow at epoch
Visualization orbit readout
Latitude
Unknown
Longitude
Unknown
Altitude
Unknown
Speed
Unknown
Apparent Right ascension
Unknown
Apparent Declination
Unknown
Sunlit
N/A
Visualization observer readout
Local Sidereal Time
20:31:06
Azimuth
Unknown
Elevation
Unknown
Doppler factor
Unknown
Orbital elements
Apogee altitude
279.85 km
Perigee altitude
249.558 km
Semi-major axis
6,642.841 km
Eccentricity
0.00228
Inclination
73.9763°
RAAN
192.3262°
Arg. of periapsis
316.6873°
True anomaly
43.43681°
Mean anomaly
43.2574°
Eccentric anomaly
43.34707°
Mean motion
4.00878 °/min
Orbital period
89.8 mins
BSTAR
0.020208
Loading maneuver chart data...
Computing Atmospheric mass density...

Documentation

Showing up to 5 results
|